Location: Meadowbank Aerodrome
(65.0250°N, 96.0705°W)
Time: 08:25:09
(UTC-05:00)

Cosmos 2221 - Visible Passes

Search period start: 16 August 2017 00:00
Search period end: 26 August 2017 00:00
Orbit: 593 x 617 km, 82.5° (Epoch: 15 August)

Date Brightness Start Highest point End Pass type
(mag) Time Alt. Az. Time Alt. Az. Time Alt. Az.
16 Aug 4.2 03:41:01 10° SSE 03:44:49 30° E 03:48:38 10° NNE visible
17 Aug 5.4 02:20:17 10° E 02:21:13 11° ENE 02:22:08 10° ENE visible
17 Aug 3.7 03:53:39 10° SSE 03:57:44 41° E 04:01:49 10° NNE visible
18 Aug 5.1 02:31:38 10° ESE 02:33:56 14° ENE 02:36:15 10° NE visible
18 Aug 3.2 04:06:26 10° S 04:10:41 56° E 04:14:57 10° NNE visible
19 Aug 4.8 02:43:41 10° SE 02:46:43 19° E 02:49:45 10° NE visible
20 Aug 4.4 02:56:01 10° SE 02:59:33 25° E 03:03:04 10° NNE visible
21 Aug 4.0 03:08:32 10° SSE 03:12:25 33° E 03:16:18 10° NNE visible
22 Aug 5.2 01:47:19 10° E 01:48:45 11° ENE 01:50:12 10° NE visible
22 Aug 3.4 03:21:13 10° SSE 03:25:20 44° E 03:29:28 10° NNE visible
23 Aug 5.0 01:58:57 10° ESE 02:01:30 15° ENE 02:04:01 10° NE visible
23 Aug 2.9 03:34:02 10° S 03:38:18 61° E 03:42:34 10° NNE visible
24 Aug 4.6 02:11:06 10° SE 02:14:17 20° E 02:17:28 10° NE visible
24 Aug 2.6 03:47:07 11° SSW 03:51:20 83° ESE 03:55:39 10° NNE visible
25 Aug 4.2 02:23:30 10° SE 02:27:07 27° E 02:30:44 10° NNE visible
25 Aug 2.6 04:00:17 11° SSW 04:04:24 74° WNW 04:08:43 10° NNE visible
